• In United Kingdom
  • List of Countries
  • For 7 days
  • Water Temperature
  • Satellite Maps
  • Weather Map
  • Weather Widgets
  • user-avatar
    Login

    Hourly Weather Riga

    Today, 26 September, Wednesday

    Time Temperature Precipitation Wind Pressure Humidity
    00:00 +6°C° 0 mm 5 mps 769 mmHg 69%
    01:00 +5°C° 0 mm 5 mps 768 mmHg 70%
    02:00 +5°C° 0 mm 4 mps 768 mmHg 70%
    03:00 +6°C° 0 mm 5 mps 768 mmHg 71%
    04:00 +6°C° 0 mm 5 mps 768 mmHg 72%
    05:00 +6°C° 0 mm 5 mps 767 mmHg 73%
    06:00 +7°C° 0 mm 6 mps 767 mmHg 73%
    07:00 +8°C° 0 mm 6 mps 766 mmHg 73%
    08:00 +8°C° 0 mm 7 mps 766 mmHg 74%
    09:00 +9°C° 0 mm 7 mps 765 mmHg 72%
    10:00 +10°C° 0 mm 7 mps 764 mmHg 71%
    11:00 +11°C° 0 mm 8 mps 763 mmHg 70%
    12:00 +11°C° 0.6 mm 8 mps 762 mmHg 75%
    13:00 +10°C° 0.6 mm 9 mps 761 mmHg 80%
    14:00 +9°C° 0.6 mm 10 mps 760 mmHg 84%
    15:00 +9°C° 1.3 mm 10 mps 759 mmHg 85%
    16:00 +9°C° 1.3 mm 10 mps 757 mmHg 86%
    17:00 +9°C° 1.3 mm 11 mps 756 mmHg 87%
    18:00 +11°C° 1 mm 10 mps 756 mmHg 88%
    19:00 +11°C° 1 mm 10 mps 755 mmHg 88%
    20:00 +12°C° 1 mm 9 mps 754 mmHg 89%
    21:00 +12°C° 0.7 mm 9 mps 754 mmHg 89%
    22:00 +13°C° 0.7 mm 8 mps 753 mmHg 89%
    23:00 +14°C° 0.7 mm 7 mps 753 mmHg 89%

    Tomorrow, 27 September, Thursday

    Time Temperature Precipitation Wind Pressure Humidity
    00:00 +13°C° 0.4 mm 6 mps 753 mmHg 88%
    01:00 +12°C° 0.4 mm 5 mps 754 mmHg 88%
    02:00 +12°C° 0.4 mm 4 mps 754 mmHg 87%
    03:00 +11°C° 0 mm 4 mps 755 mmHg 85%
    04:00 +10°C° 0 mm 4 mps 755 mmHg 84%
    05:00 +9°C° 0 mm 5 mps 755 mmHg 82%
    06:00 +9°C° 0 mm 5 mps 756 mmHg 80%
    07:00 +9°C° 0 mm 5 mps 756 mmHg 77%
    08:00 +9°C° 0 mm 6 mps 756 mmHg 75%
    09:00 +10°C° 0 mm 6 mps 757 mmHg 67%
    10:00 +12°C° 0 mm 7 mps 757 mmHg 60%
    11:00 +14°C° 0 mm 7 mps 758 mmHg 52%
    12:00 +14°C° 0 mm 7 mps 758 mmHg 51%
    13:00 +14°C° 0 mm 6 mps 758 mmHg 50%
    14:00 +15°C° 0 mm 6 mps 758 mmHg 49%
    15:00 +14°C° 0 mm 6 mps 758 mmHg 53%
    16:00 +13°C° 0 mm 5 mps 757 mmHg 57%
    17:00 +13°C° 0 mm 4 mps 757 mmHg 62%
    18:00 +12°C° 0.2 mm 5 mps 756 mmHg 70%
    19:00 +11°C° 0.2 mm 6 mps 754 mmHg 78%
    20:00 +11°C° 0.2 mm 7 mps 753 mmHg 86%
    21:00 +12°C° 0.4 mm 8 mps 752 mmHg 85%
    22:00 +13°C° 0.4 mm 9 mps 751 mmHg 85%
    23:00 +15°C° 0.4 mm 9 mps 749 mmHg 85%

    Day after tomorrow, 28 September, Friday

    Time Temperature Precipitation Wind Pressure Humidity
    00:00 +14°C° 0.7 mm 10 mps 749 mmHg 85%
    01:00 +13°C° 0.7 mm 10 mps 749 mmHg 84%
    02:00 +13°C° 0.7 mm 10 mps 748 mmHg 84%
    03:00 +12°C° 0.3 mm 9 mps 749 mmHg 84%
    04:00 +10°C° 0.3 mm 8 mps 749 mmHg 84%
    05:00 +9°C° 0.3 mm 7 mps 750 mmHg 85%
    06:00 +9°C° 0 mm 6 mps 751 mmHg 84%
    07:00 +8°C° 0 mm 5 mps 752 mmHg 84%
    08:00 +7°C° 0 mm 4 mps 753 mmHg 84%
    09:00 +8°C° 0.1 mm 4 mps 754 mmHg 79%
    10:00 +10°C° 0.1 mm 4 mps 755 mmHg 75%
    11:00 +10°C° 0.1 mm 5 mps 756 mmHg 70%
    12:00 +10°C° 0.2 mm 5 mps 756 mmHg 69%
    13:00 +10°C° 0.2 mm 5 mps 756 mmHg 67%
    14:00 +12°C° 0.2 mm 5 mps 757 mmHg 65%
    15:00 +10°C° 0.1 mm 5 mps 757 mmHg 66%
    16:00 +10°C° 0.1 mm 5 mps 758 mmHg 68%
    17:00 +9°C° 0.1 mm 5 mps 758 mmHg 69%
    18:00 +8°C° 0 mm 4 mps 759 mmHg 73%
    19:00 +7°C° 0 mm 4 mps 759 mmHg 76%
    20:00 +6°C° 0 mm 4 mps 760 mmHg 80%
    21:00 +5°C° 0 mm 3 mps 760 mmHg 82%
    22:00 +5°C° 0 mm 3 mps 760 mmHg 84%
    23:00 +4°C° 0 mm 3 mps 761 mmHg 85%

    29 September, Saturday

    Time Temperature Precipitation Wind Pressure Humidity
    00:00 +5°C° 0.1 mm 2 mps 761 mmHg 86%
    01:00 +5°C° 0.1 mm 2 mps 761 mmHg 87%
    02:00 +5°C° 0.1 mm 2 mps 762 mmHg 89%
    03:00 +5°C° 0.1 mm 2 mps 762 mmHg 89%
    04:00 +5°C° 0.1 mm 2 mps 763 mmHg 89%
    05:00 +3°C° 0.1 mm 3 mps 763 mmHg 90%
    06:00 +4°C° 0.1 mm 3 mps 763 mmHg 87%
    07:00 +5°C° 0.1 mm 3 mps 764 mmHg 85%
    08:00 +5°C° 0.1 mm 3 mps 764 mmHg 82%
    09:00 +7°C° 0 mm 3 mps 765 mmHg 74%
    10:00 +9°C° 0 mm 3 mps 766 mmHg 66%
    11:00 +10°C° 0 mm 3 mps 766 mmHg 58%
    12:00 +10°C° 0 mm 3 mps 766 mmHg 54%
    13:00 +10°C° 0 mm 3 mps 766 mmHg 51%
    14:00 +11°C° 0 mm 3 mps 766 mmHg 47%
    15:00 +10°C° 0 mm 2 mps 766 mmHg 51%
    16:00 +10°C° 0 mm 2 mps 767 mmHg 54%
    17:00 +9°C° 0 mm 2 mps 767 mmHg 58%
    18:00 +8°C° 0 mm 2 mps 767 mmHg 62%
    19:00 +7°C° 0 mm 2 mps 767 mmHg 66%
    20:00 +5°C° 0 mm 2 mps 767 mmHg 70%
    21:00 +4°C° 0 mm 3 mps 767 mmHg 71%
    22:00 +4°C° 0 mm 3 mps 767 mmHg 72%
    23:00 +4°C° 0 mm 3 mps 767 mmHg 73%

    30 September, Sunday

    Time Temperature Precipitation Wind Pressure Humidity
    00:00 +4°C° 0 mm 4 mps 767 mmHg 73%
    01:00 +4°C° 0 mm 4 mps 767 mmHg 73%
    02:00 +3°C° 0 mm 5 mps 766 mmHg 73%
    03:00 +3°C° 0 mm 5 mps 766 mmHg 72%
    04:00 +3°C° 0 mm 6 mps 765 mmHg 72%
    05:00 +4°C° 0 mm 6 mps 765 mmHg 71%
    06:00 +5°C° 0 mm 6 mps 764 mmHg 70%
    07:00 +5°C° 0 mm 7 mps 764 mmHg 69%
    08:00 +6°C° 0 mm 7 mps 764 mmHg 68%
    09:00 +8°C° 0 mm 7 mps 764 mmHg 68%
    10:00 +9°C° 0 mm 7 mps 763 mmHg 68%
    11:00 +9°C° 0 mm 7 mps 763 mmHg 68%
    12:00 +10°C° 0.1 mm 6 mps 763 mmHg 70%
    13:00 +10°C° 0.1 mm 6 mps 763 mmHg 72%
    14:00 +10°C° 0.1 mm 6 mps 762 mmHg 74%
    15:00 +10°C° 0.1 mm 6 mps 762 mmHg 76%
    16:00 +10°C° 0.1 mm 6 mps 762 mmHg 77%
    17:00 +10°C° 0.1 mm 6 mps 761 mmHg 79%
    18:00 +9°C° 0.1 mm 6 mps 761 mmHg 80%
    19:00 +9°C° 0.1 mm 6 mps 761 mmHg 81%
    20:00 +9°C° 0.1 mm 5 mps 761 mmHg 82%
    21:00 +9°C° 0.1 mm 5 mps 761 mmHg 83%
    22:00 +9°C° 0.1 mm 5 mps 761 mmHg 83%
    23:00 +9°C° 0.1 mm 5 mps 760 mmHg 83%

    1 October, Monday

    Time Temperature Precipitation Wind Pressure Humidity
    00:00 +9°C° 0.1 mm 5 mps 760 mmHg 83%
    01:00 +9°C° 0.1 mm 5 mps 760 mmHg 84%
    02:00 +9°C° 0.1 mm 5 mps 760 mmHg 84%
    03:00 +9°C° 0.1 mm 5 mps 759 mmHg 84%
    04:00 +9°C° 0.1 mm 5 mps 759 mmHg 85%
    05:00 +9°C° 0.1 mm 5 mps 759 mmHg 85%
    06:00 +9°C° 0.1 mm 5 mps 759 mmHg 85%
    07:00 +9°C° 0.1 mm 5 mps 759 mmHg 85%
    08:00 +9°C° 0.1 mm 5 mps 759 mmHg 85%
    09:00 +9°C° 0.1 mm 5 mps 759 mmHg 83%
    10:00 +10°C° 0.1 mm 5 mps 759 mmHg 81%
    11:00 +10°C° 0.1 mm 5 mps 759 mmHg 79%
    12:00 +10°C° 0 mm 5 mps 759 mmHg 77%
    13:00 +12°C° 0 mm 4 mps 759 mmHg 75%
    14:00 +12°C° 0 mm 4 mps 759 mmHg 73%
    15:00 +12°C° 0.1 mm 4 mps 758 mmHg 73%
    16:00 +12°C° 0.1 mm 3 mps 758 mmHg 74%
    17:00 +12°C° 0.1 mm 3 mps 758 mmHg 74%
    18:00 +11°C° 0 mm 3 mps 758 mmHg 75%
    19:00 +11°C° 0 mm 3 mps 758 mmHg 75%
    20:00 +10°C° 0 mm 3 mps 758 mmHg 76%
    21:00 +10°C° 0 mm 3 mps 758 mmHg 76%
    22:00 +9°C° 0 mm 3 mps 758 mmHg 77%
    23:00 +9°C° 0 mm 3 mps 758 mmHg 77%
    Show more